This demonstration page uses our WeatherBlox Daily Observations layout. Learn more.

Left ArrowRight Arrow

47.50024, -111.30081

Hourly Observations for July 27, 2020

Temp ( °F °C ) Dew Point ( °F °C ) Humidity (%) Winds ( mph kmh ) Pressure ( in mb ) Visibility ( mi km ) Precip ( " mm )
12:53 am 00:53 Clear 59 15 41 5 51 51 ENE 3 6 30.14 1021 10 16 0.00 0.00
1:53 am 01:53 Clear 57 13.9 41 5 55 55 ENE 9 15 30.13 1020 10 16 0.00 0.00
2:53 am 02:53 Clear 51 10.6 41 5 69 69 W 6 9 30.14 1021 10 16 0.00 0.00
3:53 am 03:53 Clear 49 9.4 41 5 74 74 W 8 13 30.14 1021 10 16 0.00 0.00
4:53 am 04:53 Clear 47 8.3 40 4.4 77 77 SW 8 13 30.14 1021 10 16 0.00 0.00
5:53 am 05:53 Clear 48 8.9 39 3.9 71 71 SW 5 7 30.14 1021 10 16 0.00 0.00
6:53 am 06:53 Sunny 53 11.7 40 4.4 61 61 SSW 6 9 30.14 1021 10 16 0.00 0.00
7:53 am 07:53 Sunny 58 14.4 43 6.1 58 58 SW 7 11 30.13 1020 10 16 0.00 0.00
8:53 am 08:53 Sunny 63 17.2 41 5 45 45 SSW 7 11 30.12 1020 10 16 0.00 0.00
9:53 am 09:53 Sunny 68 20 42 5.6 39 39 Calm 30.12 1020 10 16 0.00 0.00
10:53 am 10:53 Sunny 73 22.8 44 6.7 35 35 Calm 30.09 1019 10 16 0.00 0.00
11:53 am 11:53 Sunny 78 25.6 43 6.1 29 29 VRB 6 9 30.06 1018 10 16 0.00 0.00
12:53 pm 12:53 Sunny 82 27.8 43 6.1 25 25 ENE 8 13 30.04 1017 10 16 0.00 0.00
1:53 pm 13:53 Sunny 83 28.3 46 7.8 27 27 NE 10 17 30.02 1017 10 16 0.00 0.00
2:53 pm 14:53 Sunny 86 30 43 6.1 22 22 ENE 10 17 30.00 1016 10 16 0.00 0.00
3:53 pm 15:53 Sunny 89 31.7 44 6.7 21 21 NE 12 19 29.97 1015 10 16 0.00 0.00
4:53 pm 16:53 Sunny 89 31.7 44 6.7 21 21 NE 12 19 29.95 1014 10 16 0.00 0.00
5:53 pm 17:53 Sunny 89 31.7 43 6.1 20 20 ENE 13 20 29.92 1013 10 16 0.00 0.00
6:53 pm 18:53 Sunny 87 30.6 43 6.1 21 21 ENE 15 24 29.89 1012 10 16 0.00 0.00
7:53 pm 19:53 Sunny 84 28.9 43 6.1 24 24 ENE 13 20 29.88 1012 10 16 0.00 0.00
8:53 pm 20:53 Sunny 78 25.6 46 7.8 32 32 E 7 11 29.87 1012 10 16 0.00 0.00
9:53 pm 21:53 Clear 76 24.4 44 6.7 32 32 E 12 19 29.87 1012 10 16 0.00 0.00
10:53 pm 22:53 Clear 72 22.2 42 5.6 34 34 E 10 17 29.86 1011 10 16 0.00 0.00
11:53 pm 23:53 Clear 69 20.6 43 6.1 39 39 E 7 11 29.85 1011 10 16 0.00 0.00

Powered by AerisWeather